MST,Max TemperatureF,Mean TemperatureF,Min TemperatureF,Max Dew PointF,MeanDew PointF,Min DewpointF,Max Humidity, Mean Humidity, Min Humidity, Max Sea Level PressureIn, Mean Sea Level PressureIn, Min Sea Level PressureIn, Max VisibilityMiles, Mean VisibilityMiles, Min VisibilityMiles, Max Wind SpeedMPH, Mean Wind SpeedMPH, Max Gust SpeedMPH,PrecipitationIn, CloudCover, Events, WindDirDegrees
2012-1-1,41,30,19,18,15,12,77,55,33,30.77,30.62,30.34,10,10,10,21,10,25,0.00,1,,311
2012-1-2,47,30,13,21,16,9,88,61,34,30.76,30.58,30.28,10,10,10,13,7,16,0.00,0,,220
2012-1-3,60,41,21,26,21,18,84,52,19,30.33,30.18,30.04,10,10,10,21,11,25,0.00,0,,289
2012-1-4,61,43,24,23,19,14,75,46,16,30.43,30.32,30.21,10,10,9,20,12,25,0.00,0,,283
2012-1-5,73,53,33,23,21,18,56,35,14,30.19,29.99,29.78,10,10,6,16,10,21,0.00,0,,272
2012-1-6,48,34,19,22,18,14,71,49,26,30.20,30.05,29.79,10,10,10,26,11,33,0.00,0,,338
2012-1-7,42,30,17,27,20,13,92,66,40,30.28,30.18,30.05,10,10,10,22,6,24,0.00,5,,132
2012-1-8,42,32,22,27,23,17,100,73,45,30.32,30.28,30.19,10,10,10,18,7,23,0.00,3,,227
2012-1-9,55,39,22,27,21,14,71,52,32,30.30,30.21,30.11,10,10,10,18,10,22,0.00,0,,299
2012-1-10,57,42,27,27,24,21,75,53,30,30.09,29.92,29.75,10,10,9,17,9,22,0.00,0,,267
2012-1-11,41,28,14,30,15,-5,70,51,31,30.27,30.05,29.77,10,10,10,43,25,53,0.00,4,,345
2012-1-12,37,23,9,19,2,-5,69,46,22,30.27,30.17,30.11,10,10,10,30,16,37,0.00,3,,320
2012-1-13,48,34,20,18,12,9,68,46,24,30.12,30.06,29.98,10,10,10,22,12,28,0.00,2,,287
2012-1-14,52,34,16,18,11,7,67,42,17,30.27,30.12,29.91,10,10,10,17,10,23,0.00,0,,236
2012-1-15,69,46,22,21,14,7,74,42,9,29.89,29.77,29.67,10,10,10,24,7,31,0.00,0,,215
2012-1-16,33,22,11,22,12,5,88,68,47,30.21,29.90,29.71,10,7,0,28,14,32,T,3,Fog-Snow,8
2012-1-17,26,12,-2,11,5,-6,87,71,55,30.46,30.33,30.16,10,10,10,17,10,21,T,0,,241
2012-1-18,51,32,13,21,14,6,77,49,21,30.14,29.95,29.82,10,10,10,28,10,40,0.00,1,,261
2012-1-19,26,16,5,13,5,0,83,65,46,30.09,29.95,29.83,10,10,10,20,10,22,0.00,1,,108
2012-1-20,51,30,9,25,11,5,80,61,41,30.22,29.96,29.78,10,10,9,23,9,29,0.00,0,,70
2012-1-21,54,32,10,27,18,6,83,61,38,30.11,29.66,29.27,10,10,10,29,14,35,0.00,0,,151
2012-1-22,41,31,20,36,26,17,92,70,47,29.90,29.59,29.31,10,9,2,46,19,60,0.04,5,Snow,322
2012-1-23,50,36,21,18,15,12,68,46,24,30.01,29.95,29.88,10,10,10,18,8,25,0.00,0,,236
2012-1-24,46,33,20,31,23,15,92,69,45,30.30,30.12,29.93,10,10,10,26,10,33,0.00,3,,353
2012-1-25,58,36,13,26,19,10,92,57,21,30.30,30.10,29.92,10,10,10,21,10,26,0.00,0,,272
2012-1-26,51,39,26,30,20,14,85,55,24,30.14,30.00,29.78,10,10,10,31,9,39,0.00,1,,293
2012-1-27,43,30,16,29,18,7,75,52,29,30.40,30.10,29.74,10,10,10,30,18,37,0.00,4,,317
2012-1-28,44,28,12,10,5,-1,76,46,16,30.42,30.33,30.21,10,10,10,23,12,29,0.00,1,,280
2012-1-29,62,41,20,21,13,4,52,35,17,30.26,30.13,29.94,10,10,10,23,11,32,0.00,2,,256
2012-1-30,67,47,26,22,18,16,63,39,14,29.94,29.84,29.74,10,10,10,20,7,24,0.00,0,,269
2012-1-31,55,41,27,20,17,14,53,38,22,30.15,30.02,29.84,10,10,8,25,10,31,0.00,0,,308